RYR5PQ EDFH-LEIB

Flight info

Callsign RYR5PQ
Flight time 2h 16m
Altitude 35000
Route ULKIG2E ULKIG Y180 DONAB Z114 ODAVU Y163 PABLA/N0445F370 Y163 HERBI Y164 MOPAN DCT LUTIX N869 BENOT DCT NEMOS DCT GEVEA DCT INCUS DCT BALSI DCT RETNO DCT TUPOX DCT MTG DCT DIVKO DCT VATIR/N0425F310 DCT PIVUS DCT SULID DCT DIMIB DCT POS
Aircraft B38M/M-SDE1FGHILORVWXY/HB1

Departure

Time 2026-05-04 17:00
Airport Frankfurt-Hahn Airport (EDFH)

Arrival

Time 2026-05-04 19:17
Airport Ibiza Airport (LEIB)
Time Latitude Longitude Altitude Speed Heading
2026-05-04 16:23 49.94779 7.26937 1619 ft 0 kts 212°
2026-05-04 16:49 49.94789 7.26947 1625 ft 4 kts 212°
2026-05-04 16:50 49.94805 7.26991 1619 ft 4 kts 306°
2026-05-04 16:50 49.94811 7.26973 1620 ft 4 kts 302°
2026-05-04 16:51 49.94826 7.26937 1624 ft 0 kts 302°
2026-05-04 16:53 49.94826 7.26936 1624 ft 0 kts 302°
2026-05-04 16:53 49.94849 7.26860 1619 ft 5 kts 258°
2026-05-04 16:54 49.94825 7.26823 1621 ft 7 kts 216°
2026-05-04 16:55 49.94473 7.26545 1626 ft 14 kts 214°
2026-05-04 16:55 49.94265 7.26334 1629 ft 24 kts 213°
2026-05-04 16:56 49.93953 7.26014 1632 ft 27 kts 213°
2026-05-04 16:56 49.93697 7.25553 1638 ft 14 kts 224°
2026-05-04 16:57 49.93615 7.25466 1639 ft 15 kts 212°
2026-05-04 16:57 49.93432 7.25285 1643 ft 20 kts 212°
2026-05-04 16:58 49.93080 7.24918 1647 ft 11 kts 248°
2026-05-04 16:58 49.93107 7.24806 1646 ft 13 kts 299°
2026-05-04 16:59 49.93186 7.24731 1645 ft 6 kts 40°
2026-05-04 17:00 49.95516 7.27024 1941 ft 178 kts 31°
2026-05-04 17:00 49.98907 7.30344 3685 ft 208 kts 32°
2026-05-04 17:01 50.01653 7.33074 4550 ft 247 kts 32°
2026-05-04 17:01 50.05035 7.34003 5652 ft 272 kts 337°
2026-05-04 17:02 50.07340 7.29739 7015 ft 262 kts 275°
2026-05-04 17:02 50.06589 7.24414 8295 ft 261 kts 229°
2026-05-04 17:03 50.05200 7.22650 8998 ft 260 kts 203°
2026-05-04 17:03 50.03461 7.22072 9881 ft 259 kts 180°
2026-05-04 17:03 49.99986 7.23939 11109 ft 281 kts 147°
2026-05-04 17:04 49.96643 7.27810 11724 ft 320 kts 145°
2026-05-04 17:04 49.93289 7.32928 12288 ft 362 kts 124°
2026-05-04 17:05 49.91791 7.40599 13568 ft 380 kts 106°
2026-05-04 17:05 49.90569 7.48619 14855 ft 387 kts 106°
2026-05-04 17:06 49.89311 7.56821 16189 ft 395 kts 106°
2026-05-04 17:06 49.88671 7.60971 16833 ft 399 kts 106°
2026-05-04 17:07 49.87369 7.69386 18088 ft 407 kts 106°
2026-05-04 17:07 49.87146 7.70820 18288 ft 408 kts 106°
2026-05-04 17:07 49.86020 7.77988 18871 ft 414 kts 106°
2026-05-04 17:07 49.85344 7.82326 18961 ft 413 kts 106°
2026-05-04 17:08 49.84671 7.86630 19238 ft 414 kts 106°
2026-05-04 17:08 49.83306 7.95321 20332 ft 420 kts 106°
2026-05-04 17:08 49.82611 7.99731 20863 ft 423 kts 106°
2026-05-04 17:09 49.81915 8.04133 21385 ft 426 kts 107°
2026-05-04 17:09 49.81206 8.08615 21911 ft 429 kts 107°
2026-05-04 17:09 49.80493 8.13105 22416 ft 433 kts 107°
2026-05-04 17:10 49.79041 8.22218 23412 ft 439 kts 106°
2026-05-04 17:10 49.76808 8.36128 24646 ft 448 kts 107°
2026-05-04 17:11 49.76069 8.40711 25032 ft 451 kts 107°
2026-05-04 17:11 49.75298 8.45374 25403 ft 452 kts 110°
2026-05-04 17:11 49.72011 8.53406 26108 ft 442 kts 143°
2026-05-04 17:12 49.69445 8.56006 26425 ft 437 kts 159°
2026-05-04 17:12 49.63625 8.57643 27112 ft 431 kts 187°
2026-05-04 17:13 49.56187 8.53691 28059 ft 430 kts 212°
2026-05-04 17:14 49.46472 8.50117 29277 ft 440 kts 189°
2026-05-04 17:14 49.44461 8.49793 29617 ft 438 kts 188°
2026-05-04 17:14 49.38396 8.48922 30473 ft 437 kts 187°
2026-05-04 17:15 49.35372 8.48520 30884 ft 436 kts 187°
2026-05-04 17:15 49.28376 8.47607 31840 ft 433 kts 187°
2026-05-04 17:16 49.23379 8.46956 32519 ft 431 kts 187°
2026-05-04 17:16 49.14495 8.45803 33687 ft 427 kts 187°
2026-05-04 17:17 49.11536 8.45419 34060 ft 426 kts 187°
2026-05-04 17:17 49.02784 8.43477 34962 ft 423 kts 194°
2026-05-04 17:18 48.99918 8.42494 35212 ft 424 kts 195°
2026-05-04 17:18 48.94170 8.40502 35742 ft 424 kts 195°
2026-05-04 17:19 48.88411 8.38503 36240 ft 424 kts 194°
2026-05-04 17:19 48.82701 8.36525 36721 ft 425 kts 194°
2026-05-04 17:20 48.76950 8.34476 36984 ft 426 kts 195°
2026-05-04 17:20 48.68346 8.31337 36994 ft 425 kts 195°
2026-05-04 17:21 48.56876 8.27178 36988 ft 425 kts 195°
2026-05-04 17:22 48.51141 8.25105 36985 ft 425 kts 195°
2026-05-04 17:23 48.39639 8.20907 36971 ft 425 kts 195°
2026-05-04 17:24 48.31052 8.17781 36995 ft 425 kts 195°
2026-05-04 17:24 48.22630 8.13895 37005 ft 421 kts 208°
2026-05-04 17:25 48.19972 8.11939 36979 ft 423 kts 207°
2026-05-04 17:26 48.09439 8.04212 36999 ft 424 kts 207°
2026-05-04 17:27 47.96233 7.94506 36994 ft 424 kts 207°
2026-05-04 17:28 47.85688 7.86794 36999 ft 425 kts 207°
2026-05-04 17:29 47.69781 7.75229 37016 ft 425 kts 207°
2026-05-04 17:31 47.56553 7.65670 37020 ft 425 kts 207°
2026-05-04 17:32 47.43302 7.56150 37030 ft 424 kts 207°
2026-05-04 17:33 47.32707 7.48575 37017 ft 425 kts 208°
2026-05-04 17:34 47.22134 7.41049 37026 ft 422 kts 208°
2026-05-04 17:35 47.15001 7.33873 37038 ft 417 kts 230°
2026-05-04 17:35 47.11282 7.27318 37013 ft 418 kts 231°
2026-05-04 17:36 47.07629 7.20683 37016 ft 418 kts 231°
2026-05-04 17:36 47.04018 7.14067 37019 ft 418 kts 231°
2026-05-04 17:37 47.00398 7.07438 37018 ft 418 kts 231°
2026-05-04 17:37 46.96760 7.00792 37030 ft 418 kts 231°
2026-05-04 17:38 46.93125 6.94168 37026 ft 416 kts 231°
2026-05-04 17:38 46.89115 6.88229 37040 ft 414 kts 220°
2026-05-04 17:39 46.82435 6.80205 37016 ft 416 kts 220°
2026-05-04 17:39 46.77949 6.74867 37021 ft 416 kts 220°
2026-05-04 17:40 46.73457 6.69536 37019 ft 416 kts 220°
2026-05-04 17:40 46.69003 6.64261 37046 ft 416 kts 220°
2026-05-04 17:41 46.64513 6.58957 37041 ft 415 kts 220°
2026-05-04 17:41 46.60039 6.53682 37041 ft 415 kts 220°
2026-05-04 17:42 46.55541 6.48391 37057 ft 415 kts 220°
2026-05-04 17:42 46.51079 6.43154 37057 ft 414 kts 220°
2026-05-04 17:43 46.46605 6.37913 37056 ft 413 kts 220°
2026-05-04 17:43 46.42137 6.32692 37047 ft 414 kts 220°
2026-05-04 17:44 46.37653 6.27463 37045 ft 413 kts 220°
2026-05-04 17:44 46.33195 6.22275 37048 ft 412 kts 220°
2026-05-04 17:45 46.28727 6.17084 37052 ft 412 kts 220°
2026-05-04 17:45 46.23732 6.13160 37048 ft 417 kts 195°
2026-05-04 17:46 46.17979 6.11649 37040 ft 421 kts 193°
2026-05-04 17:46 46.12235 6.10304 37050 ft 421 kts 193°
2026-05-04 17:47 46.06451 6.09010 37019 ft 421 kts 192°
2026-05-04 17:47 46.00662 6.07728 36998 ft 421 kts 192°
2026-05-04 17:48 45.94924 6.06460 37016 ft 420 kts 193°
2026-05-04 17:48 45.89151 6.05187 37031 ft 420 kts 193°
2026-05-04 17:49 45.83381 6.03912 37028 ft 420 kts 193°
2026-05-04 17:49 45.77609 6.02636 37027 ft 418 kts 193°
2026-05-04 17:50 45.71876 6.01373 37037 ft 418 kts 193°
2026-05-04 17:50 45.66124 6.00106 37030 ft 418 kts 193°
2026-05-04 17:51 45.60405 5.98850 37003 ft 418 kts 193°
2026-05-04 17:51 45.54645 5.97588 37018 ft 419 kts 193°
2026-05-04 17:52 45.48904 5.96331 37023 ft 418 kts 193°
2026-05-04 17:52 45.43243 5.94551 37036 ft 417 kts 196°
2026-05-04 17:53 45.37619 5.92784 37039 ft 417 kts 196°
2026-05-04 17:53 45.31948 5.91020 37040 ft 418 kts 196°
2026-05-04 17:54 45.26286 5.89265 37043 ft 418 kts 196°
2026-05-04 17:54 45.20603 5.87507 37041 ft 418 kts 196°
2026-05-04 17:55 45.14915 5.85751 37041 ft 418 kts 196°
2026-05-04 17:55 45.09259 5.84009 37041 ft 418 kts 196°
2026-05-04 17:56 45.03570 5.82260 36991 ft 419 kts 196°
2026-05-04 17:56 44.97895 5.80518 37056 ft 419 kts 196°
2026-05-04 17:57 44.92245 5.78788 37021 ft 418 kts 196°
2026-05-04 17:57 44.86551 5.77048 37026 ft 419 kts 195°
2026-05-04 17:58 44.80858 5.75311 37031 ft 420 kts 196°
2026-05-04 17:58 44.75152 5.73575 37029 ft 420 kts 196°
2026-05-04 17:59 44.69478 5.71852 37030 ft 420 kts 196°
2026-05-04 18:00 44.60909 5.69255 37037 ft 419 kts 195°
2026-05-04 18:00 44.55203 5.67530 37047 ft 420 kts 195°
2026-05-04 18:01 44.49511 5.65814 37047 ft 419 kts 195°
2026-05-04 18:01 44.43838 5.64105 37040 ft 420 kts 195°
2026-05-04 18:02 44.35436 5.60912 37041 ft 415 kts 204°
2026-05-04 18:02 44.30035 5.57975 37047 ft 416 kts 204°
2026-05-04 18:03 44.24655 5.55035 37046 ft 417 kts 204°
2026-05-04 18:03 44.19296 5.52108 37024 ft 416 kts 205°
2026-05-04 18:04 44.13902 5.49167 37043 ft 417 kts 204°
2026-05-04 18:05 44.05814 5.44768 37018 ft 416 kts 205°
2026-05-04 18:05 44.00416 5.41840 37029 ft 417 kts 205°
2026-05-04 18:06 43.92351 5.37471 37010 ft 417 kts 205°
2026-05-04 18:06 43.86956 5.34554 37009 ft 415 kts 205°
2026-05-04 18:07 43.81604 5.31667 37007 ft 414 kts 205°
2026-05-04 18:07 43.76236 5.28777 36981 ft 413 kts 205°
2026-05-04 18:08 43.70907 5.25913 36960 ft 414 kts 205°
2026-05-04 18:08 43.65566 5.23048 36962 ft 410 kts 205°
2026-05-04 18:09 43.54941 5.17365 36995 ft 410 kts 205°
2026-05-04 18:10 43.49613 5.14523 36986 ft 410 kts 205°
2026-05-04 18:10 43.44305 5.11698 36992 ft 409 kts 205°
2026-05-04 18:11 43.39054 5.08842 36986 ft 406 kts 211°
2026-05-04 18:11 43.34383 5.04614 36965 ft 404 kts 217°
2026-05-04 18:12 43.29743 5.00291 36974 ft 403 kts 217°
2026-05-04 18:12 43.25125 4.95954 36982 ft 402 kts 217°
2026-05-04 18:13 43.20536 4.91646 36976 ft 403 kts 217°
2026-05-04 18:14 43.13608 4.85156 36968 ft 403 kts 217°
2026-05-04 18:14 43.08988 4.80837 36964 ft 401 kts 217°
2026-05-04 18:15 42.99381 4.73128 36955 ft 402 kts 212°
2026-05-04 18:16 42.94484 4.69418 36951 ft 403 kts 212°
2026-05-04 18:16 42.89604 4.65716 36944 ft 402 kts 212°
2026-05-04 18:17 42.82282 4.60171 36950 ft 401 kts 212°
2026-05-04 18:18 42.74990 4.54663 36947 ft 403 kts 212°
2026-05-04 18:18 42.70088 4.50969 36942 ft 403 kts 211°
2026-05-04 18:19 42.62724 4.45432 36939 ft 403 kts 211°
2026-05-04 18:19 42.57841 4.41769 36931 ft 404 kts 211°
2026-05-04 18:20 42.52927 4.38090 36908 ft 404 kts 212°
2026-05-04 18:20 42.48020 4.34422 36928 ft 404 kts 212°
2026-05-04 18:21 42.43101 4.30752 36929 ft 403 kts 212°
2026-05-04 18:21 42.38182 4.27089 36931 ft 403 kts 212°
2026-05-04 18:22 42.33299 4.23459 36925 ft 404 kts 212°
2026-05-04 18:22 42.28391 4.19817 36924 ft 403 kts 212°
2026-05-04 18:23 42.23465 4.16167 36926 ft 404 kts 212°
2026-05-04 18:23 42.18528 4.12515 36926 ft 405 kts 212°
2026-05-04 18:24 42.13622 4.08907 36919 ft 405 kts 211°
2026-05-04 18:24 42.08676 4.05275 36926 ft 405 kts 212°
2026-05-04 18:25 42.03742 4.01659 36918 ft 405 kts 212°
2026-05-04 18:25 41.98801 3.98043 36919 ft 405 kts 212°
2026-05-04 18:26 41.93854 3.94430 36918 ft 405 kts 212°
2026-05-04 18:26 41.88850 3.91035 36919 ft 405 kts 210°
2026-05-04 18:27 41.83823 3.87655 36919 ft 405 kts 210°
2026-05-04 18:27 41.78790 3.84270 36922 ft 405 kts 210°
2026-05-04 18:28 41.73752 3.80887 36928 ft 405 kts 210°
2026-05-04 18:28 41.68745 3.77531 36922 ft 404 kts 210°
2026-05-04 18:29 41.63715 3.74165 36916 ft 404 kts 210°
2026-05-04 18:29 41.58695 3.70812 36923 ft 404 kts 210°
2026-05-04 18:30 41.51151 3.65784 36921 ft 404 kts 210°
2026-05-04 18:31 41.46148 3.62457 36914 ft 404 kts 210°
2026-05-04 18:31 41.41116 3.59116 36915 ft 404 kts 210°
2026-05-04 18:32 41.36093 3.55787 36922 ft 404 kts 210°
2026-05-04 18:32 41.31052 3.52452 36926 ft 404 kts 210°
2026-05-04 18:33 41.26015 3.49126 36920 ft 404 kts 210°
2026-05-04 18:33 41.21008 3.45824 36924 ft 405 kts 210°
2026-05-04 18:34 41.15650 3.43502 36939 ft 412 kts 197°
2026-05-04 18:34 41.10024 3.41930 36924 ft 413 kts 197°
2026-05-04 18:35 41.04379 3.40422 36919 ft 414 kts 197°
2026-05-04 18:35 40.98764 3.38941 36924 ft 414 kts 197°
2026-05-04 18:36 40.93111 3.37454 36924 ft 414 kts 197°
2026-05-04 18:36 40.87470 3.35972 36922 ft 414 kts 197°
2026-05-04 18:37 40.81810 3.34488 36922 ft 414 kts 197°
2026-05-04 18:37 40.76191 3.33018 36924 ft 414 kts 197°
2026-05-04 18:38 40.70539 3.31542 36924 ft 414 kts 197°
2026-05-04 18:38 40.64904 3.30072 36928 ft 414 kts 197°
2026-05-04 18:39 40.59236 3.28596 36933 ft 414 kts 197°
2026-05-04 18:39 40.53585 3.27127 36930 ft 414 kts 197°
2026-05-04 18:40 40.47968 3.25670 36925 ft 414 kts 197°
2026-05-04 18:40 40.42329 3.24209 36897 ft 414 kts 197°
2026-05-04 18:41 40.36676 3.22747 36925 ft 414 kts 197°
2026-05-04 18:41 40.31042 3.21266 36927 ft 411 kts 201°
2026-05-04 18:41 40.28431 3.19887 36920 ft 399 kts 215°
2026-05-04 18:42 40.26174 3.17821 36949 ft 396 kts 223°
2026-05-04 18:42 40.22052 3.13051 36754 ft 394 kts 224°
2026-05-04 18:42 40.20032 3.10717 36023 ft 393 kts 225°
2026-05-04 18:43 40.18005 3.08347 35553 ft 387 kts 225°
2026-05-04 18:43 40.16018 3.06005 35005 ft 384 kts 225°
2026-05-04 18:43 40.14034 3.03659 34334 ft 385 kts 225°
2026-05-04 18:43 40.12041 3.01304 33486 ft 388 kts 224°
2026-05-04 18:44 40.10026 2.98923 32617 ft 391 kts 224°
2026-05-04 18:44 40.08691 2.97346 32107 ft 391 kts 224°
2026-05-04 18:44 40.06003 2.94170 31168 ft 390 kts 224°
2026-05-04 18:44 40.03988 2.91792 30407 ft 390 kts 224°
2026-05-04 18:45 40.01973 2.89417 29525 ft 395 kts 224°
2026-05-04 18:45 39.99918 2.87000 28585 ft 401 kts 224°
2026-05-04 18:45 39.97868 2.84590 27733 ft 403 kts 224°
2026-05-04 18:45 39.95775 2.82131 26885 ft 406 kts 224°
2026-05-04 18:46 39.93664 2.79654 26160 ft 411 kts 224°
2026-05-04 18:46 39.91531 2.77151 25492 ft 413 kts 224°
2026-05-04 18:46 39.89388 2.74637 24830 ft 414 kts 224°
2026-05-04 18:46 39.87254 2.72133 24168 ft 412 kts 224°
2026-05-04 18:47 39.85131 2.69644 23505 ft 409 kts 224°
2026-05-04 18:47 39.83038 2.67191 22760 ft 406 kts 224°
2026-05-04 18:47 39.80937 2.64729 22091 ft 405 kts 224°
2026-05-04 18:47 39.78851 2.62288 21424 ft 403 kts 224°
2026-05-04 18:48 39.76769 2.59854 20761 ft 400 kts 224°
2026-05-04 18:48 39.74708 2.57446 20135 ft 397 kts 224°
2026-05-04 18:48 39.72660 2.55054 19501 ft 395 kts 224°
2026-05-04 18:48 39.70650 2.52710 18884 ft 393 kts 224°
2026-05-04 18:49 39.68622 2.50347 18255 ft 392 kts 224°
2026-05-04 18:49 39.66594 2.47987 17556 ft 389 kts 224°
2026-05-04 18:49 39.64603 2.45670 17010 ft 383 kts 224°
2026-05-04 18:49 39.62612 2.43354 16934 ft 386 kts 224°
2026-05-04 18:50 39.60603 2.41022 16946 ft 388 kts 224°
2026-05-04 18:50 39.58691 2.38580 16954 ft 386 kts 227°
2026-05-04 18:50 39.56789 2.36105 16982 ft 386 kts 226°
2026-05-04 18:50 39.54913 2.33683 16994 ft 387 kts 227°
2026-05-04 18:51 39.53008 2.31234 16671 ft 378 kts 226°
2026-05-04 18:51 39.51091 2.28774 14828 ft 393 kts 226°
2026-05-04 18:51 39.49167 2.26309 13797 ft 384 kts 226°
2026-05-04 18:51 39.47298 2.23915 12865 ft 372 kts 226°
2026-05-04 18:52 39.45489 2.21600 11941 ft 363 kts 226°
2026-05-04 18:52 39.43715 2.19331 11115 ft 354 kts 226°
2026-05-04 18:52 39.42021 2.17167 11000 ft 333 kts 226°
2026-05-04 18:52 39.40404 2.15102 10869 ft 320 kts 226°
2026-05-04 18:53 39.38844 2.13113 10697 ft 310 kts 226°
2026-05-04 18:53 39.37337 2.11190 10541 ft 300 kts 226°
2026-05-04 18:53 39.35877 2.09330 10391 ft 290 kts 226°
2026-05-04 18:53 39.34469 2.07537 10233 ft 276 kts 226°
2026-05-04 18:54 39.33141 2.05846 10101 ft 262 kts 226°
2026-05-04 18:54 39.31875 2.04236 9916 ft 257 kts 226°
2026-05-04 18:54 39.30608 2.02626 9611 ft 255 kts 226°
2026-05-04 18:54 39.29353 2.01030 9307 ft 252 kts 226°
2026-05-04 18:55 39.28113 1.99455 9017 ft 250 kts 226°
2026-05-04 18:55 39.25667 1.96352 8478 ft 243 kts 226°
2026-05-04 18:55 39.24467 1.94831 8215 ft 241 kts 226°
2026-05-04 18:56 39.23277 1.93322 7949 ft 238 kts 226°
2026-05-04 18:56 39.22090 1.91819 7696 ft 243 kts 226°
2026-05-04 18:56 39.20866 1.90269 7437 ft 248 kts 226°
2026-05-04 18:56 39.19628 1.88702 7162 ft 251 kts 227°
2026-05-04 18:57 39.18394 1.87140 6893 ft 252 kts 226°
2026-05-04 18:57 39.17144 1.85561 6622 ft 251 kts 226°
2026-05-04 18:57 39.15899 1.83989 6340 ft 250 kts 227°
2026-05-04 18:57 39.14660 1.82423 6034 ft 249 kts 227°
2026-05-04 18:58 39.13428 1.80870 5757 ft 247 kts 226°
2026-05-04 18:58 39.12208 1.79331 5481 ft 245 kts 227°
2026-05-04 18:58 39.11000 1.77807 5213 ft 243 kts 226°
2026-05-04 18:58 39.09801 1.76296 4947 ft 240 kts 226°
2026-05-04 18:59 39.08611 1.74798 4686 ft 238 kts 226°
2026-05-04 18:59 39.07446 1.73330 4418 ft 236 kts 226°
2026-05-04 18:59 39.06281 1.71865 4168 ft 232 kts 226°
2026-05-04 18:59 39.05456 1.70826 4058 ft 227 kts 226°
2026-05-04 19:00 39.05185 1.70486 4025 ft 225 kts 226°
2026-05-04 19:00 39.04087 1.69105 3920 ft 216 kts 226°
2026-05-04 19:00 39.03036 1.67785 3788 ft 207 kts 226°
2026-05-04 19:01 39.02021 1.66508 3664 ft 202 kts 226°
2026-05-04 19:01 39.01018 1.65256 3567 ft 200 kts 226°
2026-05-04 19:01 39.00028 1.64014 3470 ft 198 kts 226°
2026-05-04 19:01 38.99059 1.62796 3356 ft 197 kts 226°
2026-05-04 19:02 38.98078 1.61562 3237 ft 198 kts 227°
2026-05-04 19:02 38.97132 1.60296 3130 ft 195 kts 232°
2026-05-04 19:02 38.96453 1.59142 3052 ft 194 kts 236°
2026-05-04 19:02 38.95759 1.57722 3046 ft 181 kts 239°
2026-05-04 19:03 38.95169 1.56376 2943 ft 168 kts 241°
2026-05-04 19:03 38.94632 1.55098 2749 ft 156 kts 240°
2026-05-04 19:03 38.94140 1.53912 2602 ft 147 kts 241°
2026-05-04 19:03 38.93672 1.52779 2419 ft 140 kts 240°
2026-05-04 19:04 38.93232 1.51718 2272 ft 134 kts 240°
2026-05-04 19:04 38.92811 1.50700 2092 ft 122 kts 240°
2026-05-04 19:04 38.92432 1.49764 1901 ft 117 kts 238°
2026-05-04 19:04 38.92035 1.48787 1800 ft 129 kts 241°
2026-05-04 19:05 38.91628 1.47797 1652 ft 124 kts 240°
2026-05-04 19:05 38.91205 1.46816 1442 ft 126 kts 237°
2026-05-04 19:05 38.90798 1.45829 1261 ft 123 kts 238°
2026-05-04 19:05 38.90409 1.44872 1106 ft 120 kts 238°
2026-05-04 19:06 38.90027 1.43912 929 ft 122 kts 239°
2026-05-04 19:06 38.89602 1.42922 694 ft 129 kts 238°
2026-05-04 19:06 38.89187 1.41904 583 ft 132 kts 238°
2026-05-04 19:06 38.88734 1.40835 466 ft 139 kts 243°
2026-05-04 19:07 38.88288 1.39727 371 ft 146 kts 240°
2026-05-04 19:07 38.87764 1.38512 1016 ft 171 kts 234°
2026-05-04 19:07 38.87037 1.37080 1643 ft 213 kts 235°
2026-05-04 19:07 38.86205 1.35473 2329 ft 214 kts 234°
2026-05-04 19:08 38.85248 1.34015 2897 ft 225 kts 218°
2026-05-04 19:08 38.83739 1.33357 2875 ft 240 kts 184°
2026-05-04 19:08 38.82081 1.33858 2971 ft 255 kts 156°
2026-05-04 19:08 38.80720 1.35396 2979 ft 269 kts 128°
2026-05-04 19:09 38.80028 1.37653 2984 ft 279 kts 101°
2026-05-04 19:09 38.79972 1.40121 3009 ft 283 kts 88°
2026-05-04 19:09 38.80522 1.42546 2989 ft 286 kts 65°
2026-05-04 19:09 38.81452 1.44816 3013 ft 286 kts 62°
2026-05-04 19:10 38.82391 1.47000 2973 ft 274 kts 61°
2026-05-04 19:10 38.83293 1.49120 2824 ft 268 kts 62°
2026-05-04 19:10 38.84169 1.51182 2633 ft 257 kts 62°
2026-05-04 19:10 38.85019 1.53126 2557 ft 240 kts 62°
2026-05-04 19:11 38.85775 1.54892 2538 ft 209 kts 62°
2026-05-04 19:11 38.86501 1.56397 2371 ft 193 kts 43°
2026-05-04 19:11 38.87543 1.57412 2373 ft 188 kts 19°
2026-05-04 19:11 38.88772 1.57803 2388 ft 182 kts 353°
2026-05-04 19:12 38.90018 1.57708 2396 ft 178 kts 344°
2026-05-04 19:12 38.92217 1.56691 1970 ft 162 kts 305°
2026-05-04 19:12 38.92883 1.55604 1741 ft 151 kts 284°
2026-05-04 19:13 38.93188 1.54360 1542 ft 142 kts 268°
2026-05-04 19:13 38.93200 1.53103 1611 ft 141 kts 257°
2026-05-04 19:13 38.93034 1.51863 1654 ft 141 kts 253°
2026-05-04 19:13 38.92750 1.50666 1643 ft 139 kts 241°
2026-05-04 19:14 38.92301 1.49573 1649 ft 140 kts 237°
2026-05-04 19:14 38.91846 1.48487 1674 ft 133 kts 239°
2026-05-04 19:14 38.91429 1.47463 1695 ft 127 kts 241°
2026-05-04 19:14 38.91054 1.46454 1534 ft 126 kts 238°
2026-05-04 19:15 38.90657 1.45454 1280 ft 125 kts 236°
2026-05-04 19:15 38.90227 1.44497 1110 ft 124 kts 235°
2026-05-04 19:15 38.89829 1.43496 833 ft 128 kts 242°
2026-05-04 19:15 38.89420 1.42475 677 ft 130 kts 231°
2026-05-04 19:16 38.88964 1.41460 545 ft 133 kts 240°
2026-05-04 19:16 38.88558 1.40398 360 ft 132 kts 237°
2026-05-04 19:16 38.88124 1.39346 170 ft 135 kts 238°
2026-05-04 19:16 38.87694 1.38297 20 ft 125 kts 237°
2026-05-04 19:17 38.87359 1.37495 12 ft 73 kts 242°
2026-05-04 19:17 38.87145 1.36980 14 ft 52 kts 245°
2026-05-04 19:17 38.87102 1.36727 11 ft 17 kts 269°
2026-05-04 19:17 38.87103 1.36644 11 ft 1 kts 272°
2026-05-04 19:18 38.87104 1.36612 11 ft 6 kts 272°
2026-05-04 19:18 38.87124 1.36559 11 ft 0 kts 310°
2026-05-04 19:18 38.87140 1.36552 11 ft 4 kts 359°
2026-05-04 19:18 38.87171 1.36589 11 ft 9 kts 53°
2026-05-04 19:19 38.87210 1.36681 11 ft 14 kts 63°
2026-05-04 19:19 38.87260 1.36805 11 ft 17 kts 63°
2026-05-04 19:19 38.87292 1.36861 11 ft 7 kts 15°
2026-05-04 19:19 38.87362 1.36824 12 ft 10 kts 333°
2026-05-04 19:20 38.87406 1.36791 11 ft 11 kts 311°
2026-05-04 19:20 38.87382 1.36666 11 ft 12 kts 244°
2026-05-04 19:20 38.87369 1.36627 11 ft 0 kts 270°
2026-05-04 19:20 38.87376 1.36616 11 ft 5 kts 319°
2026-05-04 19:21 38.87420 1.36584 11 ft 3 kts 335°
2026-05-04 19:21 38.87430 1.36584 11 ft 1 kts 10°
2026-05-04 19:21 38.87434 1.36585 11 ft 0 kts 13°